星链-30162 (STARLINK-30162 )

导读

STARLINK-30162是美国太空探索技术公司(SpaceX)研发运营的星链(Starlink)低轨互联网卫星,于2023年7月24日发射,属于Starlink v1.5平台,运行在倾角约53.16°的近地轨道,近地点约477公里、远地点约478公里,轨道周期约94分钟,目前仍在服役。它依托低轨布局与相控阵、OFDM等技术,为全球提供低时延宽带互联网接入服务,是星链巨型星座的组成单元。

Basic Information
目录编号:
57446
目录名称:
STARLINK-30162
国际标识:
2023-105S
轨道中心:
EARTH
卫星名称:
星链-30162
卫星全名:
星链-30162 (STARLINK-30162 )
卫星状态:
在轨 (已飞行1060 天)
发射日期:
2023-07-24 UTC
国别 :
美国 (US)
星等 :
--
Orbit Information
数据来源 国际轨道数据
星历时间: 2026-06-18T08:04:32+0800
15小时前
查看轨道信息
半长轴: 6861.198km
偏心率: 0.0001084
轨道倾角: 43.003°
近地点辐角 272.901°
升交点赤经 42.279°
平近点角 87.172°
近地点: 482.317km
远地点: 483.805km
周期: 94.267分钟
每日圈数: 15.275763
Detailed Information
固有亮度:
5
最大亮度:
0.3
卫星平台:
Starlink v2.0 mini
覆盖范围:
全球
运营商:
太空探索技术公司
运营商所在国:
美国
制造商(研发单位):
太空探索技术公司
制造商所在国:
美国
使用方式:
暂无
Satellite Introduction
星链(Starlink)计划是由太空探索技术公司(SpaceX)提出的一个巨型低轨卫星互联网星座项目,计划在2019年至2024年间在太空搭建由约1.2万颗卫星组成的“星链”网络,其中1584颗将部署在地球上空550千米处的近地轨道,并从2020年开始工作。该卫星仍在工作。
2D Orbit Map
3D Orbit Map
Orbit Altitude Analysis Chart
Orbit Inclination Analysis Chart
Orbit Comprehensive Analysis Chart
View Comprehensive Chart